Regional Weather Roundup
Issued by NWS

Home | Current Version | Previous Version | Text Only | Print | Product List | Glossary On
Versions: 1 2 3 4 5 6 7 8 9 10 11 12 13 14 15 16 17 18 19 20 21 22 23 24 25 26 27 28 29 30 31 32 33 34 35 36 37 38 39 40 41 42 43 44 45 46 47 48 49 50
000
ASUS44 KEWX 230603
RWRTX
SOUTH TEXAS REGIONAL WEATHER ROUNDUP
NATIONAL WEATHER SERVICE AUSTIN/SAN ANTONIO TX
1200 AM CST MON JAN 23 2017

NOTE: "FAIR" INDICATED FEW OR NO CLOUDS BELOW 12,000 FEET WITH NO
SIGNIFICANT WEATHER AND/OR OBSTRUCTIONS TO VISIBILITY.

* - THESE STATIONS ARE NOT NWS OR FAA STATIONS...AND ARE NOT SUBJECT
    TO NWS AND FAA QUALITY CONTROL.

TXZ171-172-183>190-230700-
TEXAS HILL COUNTRY AND EDWARDS PLATEAU

CITY           SKY/WX    TMP DP  RH WIND       PRES   REMARKS
JUNCTION       CLEAR     39  32  76 W5        30.03S WCI  36
6HR MIN TEMP:  39; 6HR MAX TEMP:  62;

*LLANO         CLEAR     41  34  75 CALM      30.04S
BURNET         CLEAR     56  30  37 NW9         N/A
6HR MIN TEMP:  51; 6HR MAX TEMP:  62;

*HORSESHOE BAY CLEAR     41  36  81 CALM      30.00S
6HR MIN TEMP:  41; 6HR MAX TEMP:  64;

*KERRVILLE     PTCLDY    38  35  87 CALM      30.03S
6HR MIN TEMP:  38; 6HR MAX TEMP:  62;

*FREDERICKSBRG CLEAR     40  31  72 W3        30.02S
*ROCKSPRINGS   CLEAR     52  28  40 N5        30.06S
*BOERNE STAGE  PTCLDY    45  32  61 CALM      30.03S
*CASTROVILLE   PTCLDY    46  32  58 NW8       30.04S WCI  42
HONDO          PTCLDY    46  31  55 W6        30.03S WCI  43
6HR MIN TEMP:  45; 6HR MAX TEMP:  68;

*UVALDE        PTCLDY    41  33  72 CALM      30.05S
6HR MIN TEMP:  41; 6HR MAX TEMP:  66;

DEL RIO        CLEAR     47  31  53 CALM      30.06R
6HR MIN TEMP:  43; 6HR MAX TEMP:  68;

LAUGHLIN AFB   CLEAR     45  34  65 NW7       30.05R WCI  41
6HR MIN TEMP:  44; 6HR MAX TEMP:  67;

CARRIZO SPRGS  CLEAR     46  30  53 W3        30.05S
*EAGLE PASS      N/A    N/A N/A N/A MISG        N/A
$$

TXZ173-191>194-202-209-217>225-228-230700-
CENTRAL AND SOUTH CENTRAL TEXAS

CITY           SKY/WX    TMP DP  RH WIND       PRES   REMARKS
GEORGETOWN     CLEAR     52  30  43 NW6       29.98S
6HR MIN TEMP:  52; 6HR MAX TEMP:  64;

AUSTIN/BERGSTM CLEAR     50  35  56 W6        29.98S WCI  48
6HR MIN TEMP:  50; 6HR MAX TEMP:  66;

AUSTIN/MABRY   CLEAR     53  35  50 NW6       29.99F
6HR MIN TEMP:  53; 6HR MAX TEMP:  66;

*AUSTIN/EXEC   CLEAR     55  32  41 NW9       29.98S
*LAGO VISTA    CLEAR     56  32  40 NW10      29.99S
6HR MIN TEMP:  52; 6HR MAX TEMP:  63;

SAN MARCOS     PTCLDY    45  36  70 NW7       30.00R WCI  41
6HR MIN TEMP:  45; 6HR MAX TEMP:  63;

NEW BRAUNFELS  PTCLDY    45  36  70 W9        29.99R WCI  40
6HR MIN TEMP:  44; 6HR MAX TEMP:  66;

RANDOLPH AFB   PTCLDY    49  34  56 W3        30.01R
6HR MIN TEMP:  48; 6HR MAX TEMP:  65;

PT SAN ANTONIO NOT AVBL
SAN ANTONIO    PTCLDY    48  34  58 NW5       30.02R WCI  46
6HR MIN TEMP:  48; 6HR MAX TEMP:  66;

STINSON FIELD  PTCLDY    50  35  56 CALM      30.00S
6HR MIN TEMP:  49; 6HR MAX TEMP:  69;

*PLEASANTON    PTCLDY    50  34  53 W6        30.03S WCI  48
6HR MIN TEMP:  47; 6HR MAX TEMP:  68;

*LA GRANGE     CLEAR     54  37  52 W3        29.95F
6HR MIN TEMP:  54; 6HR MAX TEMP:  67;

*GIDDINGS      CLEAR     53  35  50 NW3       29.97S
6HR MIN TEMP:  53; 6HR MAX TEMP:  65;

*GONZALES      CLEAR     51  37  59 W5        29.98S
6HR MIN TEMP:  51; 6HR MAX TEMP:  66;

$$

TXZ163>164-176>182-195>201-210>213-226-227-235-230700-
SOUTHEAST TEXAS

CITY           SKY/WX    TMP DP  RH WIND       PRES   REMARKS
COLLEGE STN    CLEAR     52  38  58 NW7       29.95R
6HR MIN TEMP:  51; 6HR MAX TEMP:  64;

*BRYAN         CLEAR     50  37  61 W6        29.95R WCI  48
6HR MIN TEMP:  50; 6HR MAX TEMP:  63;

*CALDWELL      NOT AVBL
*CROCKETT        N/A    N/A N/A N/A MISG        N/A
*BRENHAM       CLEAR     55  38  53 W5        29.96R
6HR MIN TEMP:  55; 6HR MAX TEMP:  65;

HUNTSVILLE     CLEAR     55  36  48 NW7       29.91S
6HR MIN TEMP:  55; 6HR MAX TEMP:  62;

CONROE         CLEAR     57  37  47 NW14      29.90F
6HR MIN TEMP:  57; 6HR MAX TEMP:  62;

HOUSTON BUSH   PTCLDY    59  38  45 NW10      29.91R
6HR MIN TEMP:  58; 6HR MAX TEMP:  63;

HOUSTON HOBBY  PTCLDY    59  38  45 NW9       29.90S
6HR MIN TEMP:  59; 6HR MAX TEMP:  64;

*HOUSTON SW AP PTCLDY    58  38  46 NW12      29.93R
6HR MIN TEMP:  58; 6HR MAX TEMP:  63;

PEARLAND       PTCLDY    60  38  43 NW8       29.92R
6HR MIN TEMP:  60; 6HR MAX TEMP:  66;

HOUSTON HOOKS  PTCLDY    58  38  47 NW8       29.91S
6HR MIN TEMP:  58; 6HR MAX TEMP:  63;

ELLINGTON FLD  NOT AVBL
SUGAR LAND     PTCLDY    56  40  55 NW9       29.93R
6HR MIN TEMP:  56; 6HR MAX TEMP:  65;

*HOUSTON EXEC  PTCLDY    54  39  58 W8        29.95S
*CLEVELAND MUN PTCLDY    57  39  50 NW9       29.91R
6HR MIN TEMP:  57; 6HR MAX TEMP:  62;

*WHARTON       PTCLDY    52  40  64 W9        29.97S
6HR MIN TEMP:  52; 6HR MAX TEMP:  62;

*COLUMBUS      FAIR      53  36  52 NW3       29.97S
6HR MIN TEMP:  53; 6HR MAX TEMP:  64;

*EAGLE LAKE    CLEAR     55  41  58 NW6       29.96S
6HR MIN TEMP:  55; 6HR MAX TEMP:  66;

$$

TXZ214>216-236>238-230700-
THE UPPER TEXAS COAST

CITY           SKY/WX    TMP DP  RH WIND       PRES   REMARKS
*ORANGE        CLEAR     58  41  53 NW12G17   29.85R
6HR MIN TEMP:  58; 6HR MAX TEMP:  63;

PORT ARTHUR    CLEAR     57  39  51 NW13      29.84R
6HR MIN TEMP:  57; 6HR MAX TEMP:  62;

GALVESTON      CLEAR     62  41  46 NW14G24   29.90R
6HR MIN TEMP:  62; 6HR MAX TEMP:  65;

ANGLETON       PTCLDY    59  39  47 NW9       29.93R
6HR MIN TEMP:  59; 6HR MAX TEMP:  65;

*BAY CITY      PTCLDY    53  44  69 NW5       29.96S
PALACIOS       PTCLDY    52  41  66 W9        29.97S
6HR MIN TEMP:  51; 6HR MAX TEMP:  65;

$$

TXZ229>234-239>247-230700-
TEXAS COASTAL BEND AND RIO GRANDE PLAINS

CITY           SKY/WX    TMP DP  RH WIND       PRES   REMARKS
VICTORIA       PTCLDY    51  40  65 W7        29.99S
6HR MIN TEMP:  49; 6HR MAX TEMP:  65;

*BEEVILLE      PTCLDY    54  40  59 NW6       30.02S
6HR MIN TEMP:  54; 6HR MAX TEMP:  72;

ROCKPORT       PTCLDY    60  43  53 W8        30.01R
6HR MIN TEMP:  60; 6HR MAX TEMP:  70;

*PORT ARANSAS  PTCLDY    59  42  52 NW8       30.01S
6HR MIN TEMP:  59; 6HR MAX TEMP:  70;

*PORT LAVACA   PTCLDY    53  42  68 CALM      29.99S
6HR MIN TEMP:  53; 6HR MAX TEMP:  67;

*INGLESIDE     PTCLDY    54  38  54 NW14      30.01S
CORPUS CHRISTI PTCLDY    49  29  46 W7        30.03R WCI  46
6HR MIN TEMP:  48; 6HR MAX TEMP:  73;

CORPUS NAS     PTCLDY    56  42  59 NW7       30.02R
6HR MIN TEMP:  56; 6HR MAX TEMP:  71;

*ROBSTOWN      PTCLDY    53  34  48 NW6       30.03S
ALICE          CLEAR     52  32  46 NW8       30.03R
6HR MIN TEMP:  52; 6HR MAX TEMP:  73;

KINGSVILLE NAS CLEAR     54  34  46 N7        30.03S
6HR MIN TEMP:  52; 6HR MAX TEMP:  73;

COTULLA        CLEAR     51  34  52 NW3       30.05S
6HR MIN TEMP:  51; 6HR MAX TEMP:  72;

*FAITH RANCH   CLEAR     50  27  40 NW5       30.05F WCI  48
LAREDO         CLEAR     52  28  39 CALM      30.06R
6HR MIN TEMP:  52; 6HR MAX TEMP:  72;

$$

TXZ248>255-230700-
DEEP SOUTH TEXAS

CITY           SKY/WX    TMP DP  RH WIND       PRES   REMARKS
BROWNSVILLE    CLEAR     59  31  34 NW5       30.02R
6HR MIN TEMP:  59; 6HR MAX TEMP:  76;

PORT ISABEL    CLEAR     60  34  37 N8        30.01R
6HR MIN TEMP:  60; 6HR MAX TEMP:  74;

*SOUTH P


USA.gov is the U.S. government's official web portal to all federal, state and local government web resources and services.